TimeCDT,TemperatureF,Dew PointF,Humidity,Sea Level PressureIn,VisibilityMPH,Wind Direction,Wind SpeedMPH,Gust SpeedMPH,PrecipitationIn,Events,Conditions,WindDirDegrees,DateUTC
12:53 AM,55.9,52.0,87,30.01,10.0,Calm,Calm,-,N/A,,Clear,0,2013-04-23 05:53:00
1:53 AM,55.9,52.0,87,30.01,10.0,Calm,Calm,-,N/A,,Mostly Cloudy,0,2013-04-23 06:53:00
2:53 AM,57.9,55.0,90,29.99,10.0,Calm,Calm,-,N/A,,Overcast,0,2013-04-23 07:53:00
3:53 AM,61.0,57.9,90,29.99,10.0,Calm,Calm,-,N/A,,Overcast,0,2013-04-23 08:53:00
4:53 AM,60.8,57.2,88,29.98,10.0,Calm,Calm,-,N/A,,Mostly Cloudy,0,2013-04-23 09:53:00
5:23 AM,60.8,57.2,88,29.98,10.0,Calm,Calm,-,N/A,,Mostly Cloudy,0,2013-04-23 10:23:00
5:27 AM,60.8,57.2,88,29.98,10.0,Calm,Calm,-,N/A,,Mostly Cloudy,0,2013-04-23 10:27:00
5:53 AM,61.0,57.9,90,29.99,10.0,Calm,Calm,-,N/A,,Overcast,0,2013-04-23 10:53:00
6:12 AM,62.6,60.8,94,29.99,9.0,Calm,Calm,-,N/A,,Overcast,0,2013-04-23 11:12:00
6:22 AM,62.6,60.8,94,29.99,10.0,Calm,Calm,-,N/A,,Overcast,0,2013-04-23 11:22:00
6:53 AM,66.0,63.0,90,30.00,10.0,SSE,4.6,-,N/A,,Overcast,150,2013-04-23 11:53:00
7:16 AM,66.2,62.6,88,30.01,10.0,SSE,8.1,-,N/A,,Overcast,160,2013-04-23 12:16:00
7:53 AM,66.9,64.0,90,30.02,10.0,South,10.4,-,N/A,,Overcast,170,2013-04-23 12:53:00
8:53 AM,69.1,64.0,84,30.02,10.0,South,6.9,16.1,N/A,,Overcast,170,2013-04-23 13:53:00
9:53 AM,73.9,64.9,73,30.02,10.0,South,11.5,20.7,N/A,,Overcast,170,2013-04-23 14:53:00
10:37 AM,75.2,64.4,69,30.03,10.0,South,11.5,19.6,N/A,,Mostly Cloudy,190,2013-04-23 15:37:00
10:53 AM,75.0,64.0,69,30.03,10.0,South,8.1,18.4,N/A,,Mostly Cloudy,190,2013-04-23 15:53:00
11:53 AM,77.0,64.9,66,30.04,10.0,South,8.1,-,N/A,,Overcast,170,2013-04-23 16:53:00
12:53 PM,79.0,64.9,62,30.01,10.0,Variable,6.9,-,N/A,,Overcast,0,2013-04-23 17:53:00
1:53 PM,82.0,64.9,56,29.99,10.0,Variable,6.9,17.3,N/A,,Mostly Cloudy,0,2013-04-23 18:53:00
2:53 PM,84.9,64.0,49,29.96,10.0,SSW,8.1,17.3,N/A,,Scattered Clouds,200,2013-04-23 19:53:00
3:53 PM,82.9,64.0,53,29.94,10.0,South,9.2,18.4,N/A,,Mostly Cloudy,180,2013-04-23 20:53:00
4:53 PM,84.0,64.0,51,29.92,10.0,South,10.4,19.6,N/A,,Partly Cloudy,180,2013-04-23 21:53:00
5:53 PM,82.0,64.9,56,29.91,10.0,SSW,8.1,-,N/A,,Partly Cloudy,210,2013-04-23 22:53:00
6:53 PM,80.1,64.0,58,29.92,10.0,SSW,8.1,-,N/A,,Partly Cloudy,200,2013-04-23 23:53:00
7:53 PM,75.9,64.0,67,29.93,10.0,South,4.6,-,N/A,,Clear,190,2013-04-24 00:53:00
8:53 PM,73.9,64.9,73,29.96,10.0,SSW,3.5,-,N/A,,Clear,200,2013-04-24 01:53:00
9:53 PM,72.0,64.9,78,29.98,10.0,SSW,3.5,-,N/A,,Mostly Cloudy,200,2013-04-24 02:53:00
10:53 PM,73.0,66.0,79,29.99,10.0,SSW,4.6,-,N/A,,Overcast,210,2013-04-24 03:53:00
11:53 PM,71.1,66.9,87,29.99,10.0,SSE,4.6,-,N/A,,Mostly Cloudy,160,2013-04-24 04:53:00